Regional Weather Roundup
Issued by NWS

Home | Current Version | Previous Version | Text Only | Print | Product List | Glossary On
Versions: 1 2 3 4 5 6 7 8 9 10 11 12 13 14 15 16 17 18 19 20 21 22 23 24 25 26 27 28 29 30 31 32 33 34 35 36 37 38 39 40 41 42 43 44 45 46 47 48 49 50
712
ASUS43 KLSX 290110
RWRMO

WEATHER SUMMARY FOR MISSOURI
NATIONAL WEATHER SERVICE SPRINGFIELD MO
800 PM CDT TUE MAR 28 2017

NOTE: "FAIR" INDICATES FEW OR NO CLOUDS BELOW 12,000 FEET WITH NO
       SIGNIFICANT WEATHER AND/OR OBSTRUCTIONS TO VISIBILITY.
       CURRENT SKY AND/OR WEATHER CONDITIONS ARE NOT AVAILABLE FOR
       CHILLICOTHE AND FARMINGTON.

MOZ001>031-035>038-043-044-053-054-290200-
...NORTHERN AND WESTERN MISSOURI...

CITY           SKY/WX    TMP DP  RH WIND       PRES   REMARKS
KANSAS CTY INT CLOUDY    53  49  86 E13       30.02F
KANSAS C DTWN  CLOUDY    54  50  86 E13       30.00F
LEE`S SUMMIT   CLOUDY    53  51  93 NE10      30.01S
ST JOSEPH      CLOUDY    53  49  86 E6        30.04F
CHILLICOTHE      N/A     53  49  86 NE7       30.08R
KIRKSVILLE     CLOUDY    52  46  80 NE7       30.11R

$$
MOZ066>068-077>081-088>096-101>105-290200-
...SOUTHWEST MISSOURI...

CITY           SKY/WX    TMP DP  RH WIND       PRES   REMARKS
SPRINGFIELD    CLEAR     63  50  62 E10       29.94R
JOPLIN         CLEAR     62  52  69 E12       29.88F
BRANSON        PTCLDY    63  50  63 E13       29.94S

$$
MOZ032>034-039>042-045>050-055>058-069>072-290200-
...CENTRAL MISSOURI...

CITY           SKY/WX    TMP DP  RH WIND       PRES   REMARKS
COLUMBIA       CLOUDY    56  50  80 E9        30.06R
JEFFERSON CITY CLOUDY    58  49  72 E8        30.05R
ROLLA          CLOUDY    53  49  86 NE12      30.03R
SEDALIA        CLOUDY    56  51  84 NE7       30.04R
WHITEMAN AFB   CLOUDY    55  55  99 NE9       30.01S
WARRENSBURG    CLOUDY    54  48  82 NE10G16   30.02S
OSAGE BEACH    CLEAR     55  49  80 NE12      30.03R

$$
MOZ051-052-059>065-290200-
...EAST CENTRAL MISSOURI...

CITY           SKY/WX    TMP DP  RH WIND       PRES   REMARKS
ST LOUIS INTL  CLOUDY    57  48  72 NE10      30.08S
SPIRIT OF STL  CLOUDY    56  49  77 NE12      30.06S
ST CHARLES     CLOUDY    55  49  80 E10       30.08R

$$
MOZ072>076-082>087-097>100-106>115-290200-
...SOUTH CENTRAL AND SOUTHEAST MISSOURI...

CITY           SKY/WX    TMP DP  RH WIND       PRES   REMARKS
CAPE GIRARDEAU CLOUDY    58  49  72 E9        30.05R
FARMINGTON     CLOUDY    54  49  83 E6        30.07R
POPLAR BLUFF   CLOUDY    59  52  77 NE8       30.03R
WEST PLAINS    CLEAR     60  49  66 E7        30.00R

$$




USA.gov is the U.S. government's official web portal to all federal, state and local government web resources and services.